Lake Wenatchee to Mission Ridge
Dirtyface Mt
Latest observation 09/03 17:00 PDT
| Time (PDT) | Temp °F 5980' | RH % 5980' | Min mph 5980' | Spd mph 5980' | Gust mph 5980' | Dir ° 5980' |
|---|---|---|---|---|---|---|
| 09/03 17:00 | 40 | 74 | 1 | 6 | 18 | 111 |
| 09/03 16:00 | 50 | 60 | 1 | 5 | 17 | 180 |
| 09/03 15:00 | 50 | 56 | 2 | 8 | 18 | 198 |
| 09/03 14:00 | 50 | 54 | 3 | 6 | 9 | 175 |
| 09/03 13:00 | 49 | 62 | 0 | 4 | 8 | 156 |
| 09/03 12:00 | 43 | 76 | 0 | 1 | 7 | 103 |
| 09/03 11:00 | 42 | 77 | 0 | 3 | 10 | 220 |
| 09/03 10:00 | 39 | 78 | 1 | 5 | 11 | 223 |
| 09/03 09:00 | 38 | 78 | 2 | 8 | 16 | 264 |
| 09/03 08:00 | 37 | 79 | 4 | 10 | 21 | 266 |
| 09/03 07:00 | 35 | 82 | 4 | 11 | 23 | 234 |
| 09/03 06:00 | 35 | 80 | 7 | 11 | 18 | 260 |
| 09/03 05:00 | 35 | 77 | 8 | 14 | 27 | 262 |
| 09/03 04:00 | 34 | 85 | 13 | 23 | 37 | 255 |
| 09/03 03:00 | 35 | 80 | 15 | 27 | 36 | 277 |
| 09/03 02:00 | 35 | 83 | 15 | 25 | 37 | 271 |
| 09/03 01:00 | 35 | 88 | 15 | 22 | 37 | 272 |
| 09/03 00:00 | 36 | 97 | 15 | 22 | 30 | 273 |
| 09/02 23:00 | 37 | 95 | 16 | 26 | 41 | 259 |
| 09/02 22:00 | 37 | 96 | 6 | 17 | 32 | 259 |
| 09/02 21:00 | 41 | 77 | 3 | 12 | 22 | 246 |
| 09/02 20:00 | 41 | 80 | 6 | 17 | 41 | 250 |
| 09/02 19:00 | 40 | 86 | 6 | 20 | 40 | 226 |
| 09/02 18:00 | 45 | 74 | 6 | 10 | 18 | 186 |

